Satellite-Ground Cal/Val Region Overpasses Predictions

Prediction of Satellite NPP Overpassing Cal/Val Region: PacNW

Region Location: (Latitude: 10.00, Longitude: 139.50) to (Latitude: 22.70, Longitude: 165.60).

Table of predicted overpasses for the next 14.0 days since TLE Epoch: 8/1/2016
Interval Starting Time Starting Location Ending Time Ending Location
1 08/01/2016 16:02:39 ( 22.67, 144.45) 08/01/2016 16:06:14 ( 10.06, 141.45)
2 08/02/2016 03:11:44 ( 10.02, 151.98) 08/02/2016 03:15:19 ( 22.64, 148.98)
3 08/02/2016 15:43:36 ( 22.68, 149.21) 08/02/2016 15:47:12 ( 10.00, 146.20)
4 08/03/2016 02:52:41 ( 10.01, 156.74) 08/03/2016 02:56:17 ( 22.70, 153.72)
5 08/03/2016 15:24:34 ( 22.69, 153.97) 08/03/2016 15:28:10 ( 10.01, 150.96)
6 08/04/2016 02:33:39 ( 10.01, 161.50) 08/04/2016 02:37:15 ( 22.69, 158.48)
7 08/04/2016 15:05:31 ( 22.70, 158.73) 08/04/2016 15:09:07 ( 10.02, 155.72)
8 08/05/2016 02:15:25 ( 12.88, 165.60) 08/05/2016 02:18:12 ( 22.68, 163.24)
9 08/05/2016 03:56:06 ( 10.01, 140.88) 08/05/2016 03:57:47 ( 15.94, 139.51)
10 08/05/2016 14:46:30 ( 22.64, 163.48) 08/05/2016 14:50:05 ( 10.03, 160.48)
11 08/06/2016 03:37:04 ( 10.00, 145.64) 08/06/2016 03:40:40 ( 22.69, 142.63)
12 08/06/2016 14:30:37 ( 11.56, 165.59) 08/06/2016 14:31:03 ( 10.03, 165.24)
13 08/06/2016 16:08:58 ( 22.64, 142.86) 08/06/2016 16:12:33 ( 10.02, 139.86)
14 08/07/2016 03:18:02 ( 10.06, 150.39) 08/07/2016 03:21:37 ( 22.68, 147.39)
15 08/07/2016 15:49:55 ( 22.65, 147.62) 08/07/2016 15:53:30 ( 10.03, 144.62)
16 08/08/2016 02:59:00 ( 10.05, 155.15) 08/08/2016 03:02:35 ( 22.68, 152.15)
17 08/08/2016 15:30:53 ( 22.66, 152.38) 08/08/2016 15:34:28 ( 10.04, 149.38)
18 08/09/2016 02:39:57 ( 10.05, 159.91) 08/09/2016 02:43:32 ( 22.67, 156.91)
19 08/09/2016 15:11:50 ( 22.66, 157.14) 08/09/2016 15:15:25 ( 10.04, 154.14)
20 08/10/2016 02:20:55 ( 10.04, 164.67) 08/10/2016 02:24:30 ( 22.67, 161.67)
21 08/10/2016 14:52:48 ( 22.67, 161.90) 08/10/2016 14:56:23 ( 10.05, 158.90)
22 08/11/2016 03:43:22 ( 10.05, 144.06) 08/11/2016 03:46:57 ( 22.67, 141.05)
23
